Regional Weather Roundup
Issued by NWS

Home | Current Version | Previous Version | Text Only | Print | Product List | Glossary Off
Versions: 1 2 3 4 5 6 7 8 9 10 11 12 13 14 15 16 17 18 19 20 21 22 23 24 25 26 27 28 29 30 31 32 33 34 35 36 37 38 39 40 41 42 43 44 45 46 47 48 49 50

000
ASUS43 KTOP 282308
RWRKS

WEATHER ROUNDUP FOR KANSAS
NATIONAL WEATHER SERVICE GOODLAND KS
600 PM CDT THU AUG 28 2014

NOTE:  "FAIR" INDICATES FEW OR NO CLOUDS BELOW 12,000 FEET WITH NO
SIGNIFICANT WEATHER AND/OR OBSTRUCTIONS TO VISIBILITY.

KSZ001>006-013>018-027>032-041>047-290000-
NORTHWEST KANSAS

CITY           SKY/WX    TMP DP  RH WIND       PRES   REMARKS
GOODLAND       MOSUNNY   80  54  40 NW14      29.96F
HAYS           MOSUNNY   84  64  51 SW10      29.85F
HILL CITY      SUNNY     82  63  52 S6        29.87F
RUSSELL        TSTM      77  69  76 S18       29.82F
$$

KSZ061>065-074>080-084>089-290000-
SOUTHWEST KANSAS

CITY           SKY/WX    TMP DP  RH WIND       PRES   REMARKS
DODGE CITY     MOSUNNY   84  60  44 NW6       29.89F
ELKHART          N/A     83  50  32 W7          N/A
GARDEN CITY    SUNNY     83  59  44 N5        29.92R
GREAT BEND     MOSUNNY   84  64  51 SE21      29.84F
LIBERAL        MOSUNNY   88  52  29 W6        29.91F
PRATT          PTSUNNY   81  63  54 SE9G20    29.89R
$$

KSZ066>073-081>083-090>101-290000-
SOUTHEAST KANSAS

CITY           SKY/WX    TMP DP  RH WIND       PRES   REMARKS
CHANUTE        PTSUNNY   93  59  31 S13G23    29.89S
COFFEYVILLE    MOSUNNY   93  61  34 S10G22    29.88S
HUTCHINSON     PTSUNNY   84  67  56 SE18G29   29.87S
MEDICINE LODGE   N/A     84  66  54 SE13G20   29.87R
NEWTON         PTSUNNY   75  64  69 S12       29.91F
PARSONS        SUNNY     92  60  34 S7        29.90S
WICHITA INTL   CLOUDY    77  69  76 S13       29.88F
WICHITA JABRA  CLOUDY    76  68  76 S12       29.88F
WICHITA MCCONL MOSUNNY   75  72  90 SE13      29.89F
WINFIELD       LGT RAIN  72  69  90 S5        29.91F
$$

KSZ007>012-019>026-033>040-048>060-102>105-290000-
NORTHEAST KANSAS

CITY           SKY/WX    TMP DP  RH WIND       PRES   REMARKS
CONCORDIA      CLOUDY    80  68  66 S17       29.84F
EMPORIA        PTSUNNY   87  66  49 S9        29.85F
LAWRENCE       MOSUNNY   98  64  32 S12       29.84F HX 100
MANHATTAN      CLOUDY    79  70  74 SW7       29.84F
MARYSVILLE     CLOUDY    79  70  73 S3        29.85S
OLATHE IND     SUNNY     91  66  43 SE17      29.88F
OLATHE EXE     SUNNY     88  67  49 S14       29.88F
SALINA         PTSUNNY   82  66  58 S13G20    29.85F
TOPEKA BILLARD MOSUNNY   92  62  36 S12       29.83F
TOPEKA FORBES  MOSUNNY   91  60  35 S13       29.84F
$$



USA.gov is the U.S. government's official web portal to all federal, state and local government web resources and services.